TimePST,TemperatureF,Dew PointF,Humidity,Sea Level PressureIn,VisibilityMPH,Wind Direction,Wind SpeedMPH,Gust SpeedMPH,PrecipitationIn,Events,Conditions,WindDirDegrees,DateUTC
12:58 AM,30.7,28.9,93,29.92,10.0,SE,3.5,-,N/A,,Partly Cloudy,140,2013-03-05 08:58:00
1:58 AM,30.6,29.3,95,29.91,10.0,ESE,3.5,-,N/A,,Mostly Cloudy,120,2013-03-05 09:58:00
2:58 AM,31.6,30.0,94,29.89,10.0,SE,4.6,-,N/A,,Overcast,140,2013-03-05 10:58:00
3:58 AM,32.5,30.7,93,29.88,10.0,SSE,2.3,-,N/A,,Overcast,150,2013-03-05 11:58:00
4:58 AM,34.2,31.6,90,29.85,10.0,East,1.2,-,N/A,,Overcast,90,2013-03-05 12:58:00
5:58 AM,33.4,31.6,93,29.84,10.0,South,2.3,-,N/A,,Overcast,190,2013-03-05 13:58:00
6:58 AM,36.3,33.6,90,29.85,10.0,West,4.6,-,N/A,,Overcast,270,2013-03-05 14:58:00
7:58 AM,39.4,34.5,83,29.85,10.0,NW,3.5,-,N/A,,Clear,310,2013-03-05 15:58:00
8:58 AM,41.0,34.9,79,29.87,10.0,SSE,9.2,-,N/A,,Mostly Cloudy,150,2013-03-05 16:58:00
9:58 AM,41.4,35.2,79,29.86,10.0,SE,6.9,-,N/A,,Mostly Cloudy,140,2013-03-05 17:58:00
10:58 AM,44.2,36.0,73,29.84,10.0,WNW,4.6,-,N/A,,Mostly Cloudy,300,2013-03-05 18:58:00
11:58 AM,45.3,36.9,72,29.84,10.0,West,3.5,-,N/A,,Scattered Clouds,270,2013-03-05 19:58:00
12:58 PM,45.5,37.2,73,29.83,10.0,WSW,6.9,-,N/A,,Overcast,250,2013-03-05 20:58:00
1:58 PM,45.9,38.8,76,29.81,10.0,West,6.9,-,N/A,,Overcast,270,2013-03-05 21:58:00
2:58 PM,45.9,39.0,77,29.81,10.0,WNW,3.5,-,N/A,,Overcast,300,2013-03-05 22:58:00
3:58 PM,45.1,39.4,80,29.81,10.0,NW,4.6,-,N/A,,Overcast,310,2013-03-05 23:58:00
4:03 PM,44.6,39.2,81,29.78,10.0,NNW,5.8,-,N/A,,Overcast,330,2013-03-06 00:03:00
4:47 PM,44.6,39.2,81,29.78,10.0,WNW,5.8,-,N/A,,Light Drizzle,290,2013-03-06 00:47:00
4:58 PM,44.2,39.4,83,29.80,10.0,West,5.8,-,0.00,,Light Drizzle,270,2013-03-06 00:58:00
5:21 PM,42.8,39.2,87,29.78,10.0,WNW,5.8,-,N/A,,Overcast,290,2013-03-06 01:21:00
5:31 PM,42.8,39.2,87,29.78,10.0,WNW,4.6,-,N/A,,Overcast,290,2013-03-06 01:31:00
5:36 PM,42.8,39.2,87,29.78,10.0,WNW,4.6,-,N/A,,Overcast,290,2013-03-06 01:36:00
5:47 PM,42.8,39.2,87,29.78,10.0,WNW,4.6,-,N/A,,Light Drizzle,290,2013-03-06 01:47:00
5:58 PM,42.8,39.9,90,29.80,10.0,WNW,3.5,-,0.02,,Light Drizzle,300,2013-03-06 01:58:00
5:59 PM,42.8,39.2,87,29.78,10.0,NW,3.5,-,N/A,,Mostly Cloudy,310,2013-03-06 01:59:00
6:04 PM,42.8,41.0,93,29.78,10.0,WNW,3.5,-,N/A,,Mostly Cloudy,300,2013-03-06 02:04:00
6:05 PM,42.8,41.0,93,29.78,10.0,WNW,3.5,-,N/A,,Light Drizzle,300,2013-03-06 02:05:00
6:40 PM,42.8,41.0,93,29.78,10.0,NW,2.3,-,N/A,,Overcast,310,2013-03-06 02:40:00
6:48 PM,42.8,41.0,93,29.78,10.0,NNW,2.3,-,N/A,,Light Drizzle,340,2013-03-06 02:48:00
6:58 PM,42.4,40.3,92,29.80,10.0,NW,3.5,-,0.02,Rain,Light Rain,310,2013-03-06 02:58:00
7:25 PM,42.8,41.0,93,29.78,10.0,Variable,3.5,-,N/A,,Overcast,0,2013-03-06 03:25:00
7:45 PM,41.0,41.0,100,29.78,10.0,WNW,3.5,-,N/A,,Light Drizzle,290,2013-03-06 03:45:00
7:58 PM,41.7,40.6,96,29.79,10.0,NNW,4.6,-,0.02,,Light Drizzle,330,2013-03-06 03:58:00
8:15 PM,41.0,41.0,100,29.76,10.0,NNW,3.5,-,N/A,,Overcast,340,2013-03-06 04:15:00
8:20 PM,41.0,41.0,100,29.77,10.0,North,2.3,-,N/A,,Light Drizzle,10,2013-03-06 04:20:00
8:22 PM,41.0,41.0,100,29.77,10.0,North,2.3,-,N/A,,Light Drizzle,10,2013-03-06 04:22:00
8:31 PM,41.0,41.0,100,29.76,10.0,North,3.5,-,N/A,,Overcast,360,2013-03-06 04:31:00
8:47 PM,41.0,41.0,100,29.76,10.0,NNE,2.3,-,N/A,,Overcast,20,2013-03-06 04:47:00
8:58 PM,41.5,41.2,99,29.78,10.0,North,3.5,-,0.01,,Overcast,360,2013-03-06 04:58:00
9:01 PM,41.0,41.0,100,29.76,10.0,NNW,3.5,-,N/A,,Mostly Cloudy,340,2013-03-06 05:01:00
9:31 PM,41.0,41.0,100,29.75,10.0,North,2.3,-,N/A,,Partly Cloudy,350,2013-03-06 05:31:00
9:58 PM,41.0,40.5,98,29.77,10.0,NNW,2.3,-,N/A,,Clear,330,2013-03-06 05:58:00
10:58 PM,40.5,40.3,99,29.75,10.0,NW,2.3,-,N/A,,Overcast,320,2013-03-06 06:58:00
11:58 PM,40.3,39.9,99,29.73,10.0,Calm,Calm,-,N/A,,Overcast,0,2013-03-06 07:58:00